Rifle, CO

6:28 AM MDT on June 22, 2017 (GMT -0600)
Garfield County Regional

Weather History for KRIL - February, 2012

Change the Weather History Date:

Thursday, February 2, 2012

  Actual Average Record
Temperature  
Mean Temperature 36 °F 27 °F  
Max Temperature 48 °F 39 °F 63 °F (1934)
Min Temperature 24 °F 15 °F -30 °F (1951)
Degree Days  
Heating Degree Days 29 38  
Month to date heating degree days 64 76  
Since 1 July heating degree days 3876 4111  
Cooling Degree Days 0 0  
Month to date cooling degree days 0  
Year to date cooling degree days 0  
Moisture  
Dew Point 19 °F    
Average Humidity 55    
Maximum Humidity 81    
Minimum Humidity 28    
Precipitation  
Precipitation 0.00 in 0.02 in 0.40 in (1932)
Month to date precipitation 0.00 0.04  
Year to date precipitation 0.57 0.85  
Sea Level Pressure  
Sea Level Pressure 29.95 in    
Wind  
Wind Speed 3 mph (WNW)    
Max Wind Speed 17 mph    
Max Gust Speed 22 mph    
Visibility 10 miles    
Events      
T = Trace of Precipitation, MM = Missing Value Source: NWS Daily Summary

Daily Weather History Graph

Daily Weather History Graph

Search for Another Location

Airport or City:

Trip Planner

Search our weather history database for the weather conditions in past years. The results will help you decide how hot, cold, wet, or windy it might be!

Date:

Astronomy

Feb. 02, 2012 Rise Set
Actual Time 7:17 AM MST 5:31 PM MST
Civil Twilight 6:49 AM MST 6:00 PM MST
Nautical Twilight 6:17 AM MST 6:32 PM MST
Astronomical Twilight 5:45 AM MST 7:03 PM MST
Moon 12:46 PM MST (2/2) 3:02 AM MST (2/2)
Length of Visible Light 11h 10m
Length of Day
10h 13m
Waxing Gibbous, 74% of the Moon is Illuminated
Feb 2
Waxing Gibbous
Feb 7
Full
Feb 14
Last Quarter
Feb 21
New
Feb 29
First Quarter

Hourly Weather History & Observations

Time (MST) Temp. Windchill Dew Point Humidity Pressure Visibility Wind Dir Wind Speed Gust Speed Precip Events Conditions
12:53 AM 28.9 °F - 21.0 °F 72% 30.08 in 10.0 mi Calm Calm - N/A   Mostly Cloudy
1:53 AM 28.0 °F - 21.9 °F 78% 30.05 in 10.0 mi Calm Calm - N/A   Overcast
2:53 AM 28.9 °F - 21.0 °F 72% 30.01 in 10.0 mi Calm Calm - N/A   Overcast
3:53 AM 28.0 °F - 21.0 °F 75% 30.00 in 10.0 mi Calm Calm - N/A   Overcast
4:53 AM 28.0 °F - 21.0 °F 75% 30.00 in 10.0 mi Calm Calm - N/A   Mostly Cloudy
5:53 AM 25.0 °F - 19.0 °F 78% 30.00 in 10.0 mi Calm Calm - N/A   Overcast
6:53 AM 25.0 °F 18.1 °F 18.0 °F 75% 30.02 in 10.0 mi East 5.8 mph - N/A   Mostly Cloudy
7:53 AM 26.1 °F 21.9 °F 19.9 °F 78% 30.02 in 10.0 mi SSW 3.5 mph - N/A   Mostly Cloudy
8:53 AM 30.0 °F - 19.0 °F 64% 30.01 in 10.0 mi Calm Calm - N/A   Overcast
9:53 AM 32.0 °F - 19.0 °F 59% 29.99 in 10.0 mi Calm Calm - N/A   Overcast
10:53 AM 37.0 °F 34.5 °F 15.1 °F 41% 29.96 in 10.0 mi West 3.5 mph - N/A   Overcast
11:53 AM 41.0 °F - 16.0 °F 36% 29.89 in 10.0 mi Calm Calm - N/A   Scattered Clouds
12:53 PM 45.0 °F - 14.0 °F 29% 29.84 in 10.0 mi Calm Calm - N/A   Clear
1:53 PM 46.0 °F 44.8 °F 15.1 °F 29% 29.81 in 10.0 mi SE 3.5 mph - N/A   Scattered Clouds
2:53 PM 46.0 °F - 15.1 °F 29% 29.80 in 10.0 mi Calm Calm - N/A   Overcast
3:53 PM 44.1 °F 37.1 °F 18.0 °F 35% 29.82 in 10.0 mi NW 15.0 mph - N/A   Overcast
4:53 PM 43.0 °F 36.0 °F 19.0 °F 38% 29.84 in 10.0 mi NW 13.8 mph - N/A   Overcast
5:53 PM 39.9 °F 33.9 °F 19.9 °F 45% 29.89 in 10.0 mi NW 9.2 mph - N/A   Mostly Cloudy
6:53 PM 39.0 °F 34.0 °F 21.0 °F 49% 29.92 in 10.0 mi WSW 6.9 mph - N/A   Overcast
7:53 PM 37.9 °F 31.5 °F 19.0 °F 47% 29.94 in 10.0 mi NW 9.2 mph 17.3 mph N/A   Scattered Clouds
8:53 PM 35.1 °F 32.2 °F 19.9 °F 54% 29.95 in 10.0 mi NW 3.5 mph - N/A   Clear
9:53 PM 32.0 °F 28.7 °F 21.0 °F 64% 29.97 in 10.0 mi Variable 3.5 mph - N/A   Clear
10:53 PM 32.0 °F - 19.9 °F 61% 29.96 in 10.0 mi Calm Calm - N/A   Mostly Cloudy
11:53 PM 33.1 °F - 19.0 °F 56% 29.96 in 10.0 mi Calm Calm - N/A   Partly Cloudy